2023-059B (56368 NORAD) Tracking and Keplerian Element Data

This shows tracking and keplerian element data for the satellite.

Feedback or suggestion? Click here.




ElementValue
Catalog56368
Name2023-059B
Epoch Orbit25
Epoch Day122.30036483
Epoch Year2023
RAAN17.8044
Inclination8.6028
Eccentricity0.1879387
Argument of Perigee190.0145
Mean Anonmoly165.6601
Mean Motion7.26395349
Decay Rate4.8E-07
L11 56368U 23059B 23122.30036483 .00000048 00000+0 00000+0 0 9994
L22 56368 8.6028 17.8044 1879387 190.0145 165.6601 7.26395349 251



Live tracking and technical data element details for 2023-059B (NORAD 56368). 2023-059B can be tracked NOW for your location showing map with azimuth and elevation plus other details from your city location.







IsCatalogInMostPopularTable: catalog: 56368, numindb: 6
Update: records affected: 1



GetName: 56368 2023-059B

Hit Count: updated at: Wed, 07 Jun 2023 08:36:19 GMT